Current weather by "City, St" or "zip code"  
 
Advertise Here

Current Conditions: Deming Municipal Airport, NM

Fair


101.0 F

Last Updated on Aug 4 2020, 3:53 pm MDT
Humidity: 12%
Wind Speed: SW 8.1 mph
Barometer 30.05 in
Dewpoint: 39.9 F
Visibility: 10.00 mi
Precip: --
Heat Index: 96 F
Wind Chill: NA
Current conditions at:

Deming Municipal Airport, NM (KDMN)

Lat: 32.25927 Lon: 107.72051

Local Radar Image active severe weather and emergency alerts image image weather storm and storm spotter reports image weather observation monitoring service image
Local
Radar
Active
Alerts
Storm Reports Obs
Monitoring

Sign-up For Email & Text Message Weather Alert Notification Services


Advertise Here

Observation History for Deming Municipal Airport, NM


Time Wind
(mph)
Vis
(mi)
Weather Precip (in) Temperature (F) Relative
Humidity
Wind
Chill
(F)
Heat
Index
(F)
Pressure
Air Dwpt altimeter
(in)
sea level
(mb)
Rmks
3:53 pm MDT SW 8.1 10.00 Fair -- 101.0 39.9 12% NA 96 30.05 1008.5
2:53 pm MDT 6.9 10.00 Fair -- 101.0 43.0 14% NA 97 30.08 1009.3
1:53 pm MDT 5.8 10.00 Fair -- 98.0 42.1 15% NA 94 30.11 1010.6
12:53 pm MDT 3.5 10.00 Fair -- 96.0 46.0 18% NA 92 30.13 1011.2
11:53 am MDT 6.9 G 17.3 10.00 Fair -- 95.0 48.0 20% NA 91 30.15 1011.8
10:53 am MDT 10.00 Fair -- 91.0 50.0 25% NA 88 30.16 1012.2
9:53 am MDT W 6.9 10.00 Fair -- 87.0 53.1 31% NA 85 30.17 1012.6
8:53 am MDT W 6.9 10.00 Fair -- 80.0 54.0 41% NA 80 30.17 1013.1
7:53 am MDT N 0.0 10.00 Fair -- 74.0 53.1 48% NA NA 30.16 1012.7
6:53 am MDT SW 5.8 10.00 Fair -- 67.0 53.1 61% NA NA 30.15 1013.3
5:53 am MDT W 8.1 10.00 Fair -- 71.0 53.1 53% NA NA 30.13 1011.4
4:53 am MDT SW 8.1 10.00 Fair -- 71.0 52.0 51% NA NA 30.12 1011.1
3:53 am MDT W 4.6 10.00 Fair -- 70.0 53.1 55% NA NA 30.13 1011.6
2:53 am MDT S 5.8 10.00 Fair -- 73.0 53.1 50% NA NA 30.14 1011.7
1:53 am MDT W 3.5 10.00 Fair -- 74.0 53.1 48% NA NA 30.14 1011.6
12:53 am MDT SW 4.6 10.00 Fair -- 78.0 50.0 37% NA NA 30.13 1011.5
11:53 pm MDT NW 6.9 10.00 Fair -- 79.0 50.0 36% NA NA 30.14 1011.9
10:53 pm MDT SW 8.1 10.00 Fair -- 82.0 48.0 31% NA 81 30.13 1011.4
9:53 pm MDT W 11.5 10.00 Fair -- 83.0 51.1 33% NA 82 30.14 1011.9
8:53 pm MDT NW 16.1 G 23.0 10.00 A Few Clouds -- 86.0 48.0 27% NA 83 30.12 1011.4
7:53 pm MDT SE 12.7 G 27.6 10.00 Fair -- 91.0 39.0 16% NA 87 30.07 1009.8
6:53 pm MDT NW 16.1 G 32.2 10.00 Thunderstorm in Vicinity Light Rain Trace 87.0 48.0 26% NA 84 30.08 1010.8
5:53 pm MDT NE 8.1 G 19.6 10.00 A Few Clouds -- 97.0 45.0 17% NA 93 30.05 1009.0
4:53 pm MDT S 6.9 10.00 Fair -- 99.0 45.0 16% NA 95 30.05 1008.6

Regional Weather Observation


Grant County Airport, NM (KSVC)

Fair
94.0 F

Lordsburg Municipal Airport, NM (KLSB)

Fair
63.0 F

Las Cruces, Las Cruces International Airport, NM (KLRU)

Fair
100.0 F

Truth Or Consequences, Truth Or Consequences Municipal Airport, NM (KTCS)

Fair
99.0 F

Safford, Safford Municipal Airport, AZ (KSAD)

Fair
105.0 F

Holloman Air Force Base, NM (KHMN)

Fair
99.0 F